Time,TemperatureF,DewpointF,PressureIn,WindDirection,WindDirectionDegrees,WindSpeedMPH,WindSpeedGustMPH,Humidity,HourlyPrecipIn,Conditions,Clouds,dailyrainin,SoftwareType,DateUTC
2013-01-12 00:02:00,54.0,46.0,29.76,South,180,16.0,23.0,76,-99.99,,,-99.99,,2013-01-12 06:02:00,
2013-01-12 00:12:00,54.0,46.0,29.76,South,180,16.0,23.0,76,-99.99,,,-99.99,,2013-01-12 06:12:00,
2013-01-12 00:22:00,54.0,46.0,29.75,South,190,17.0,-999.0,76,-99.99,,,-99.99,,2013-01-12 06:22:00,
2013-01-12 00:32:00,54.0,46.0,29.76,South,190,18.0,27.0,76,-99.99,,,-99.99,,2013-01-12 06:32:00,
2013-01-12 00:43:00,54.0,46.0,29.76,South,190,15.0,24.0,76,-99.99,,,-99.99,,2013-01-12 06:43:00,
2013-01-12 00:53:00,54.0,46.0,29.75,South,190,16.0,22.0,76,-99.99,,,-99.99,,2013-01-12 06:53:00,
2013-01-12 01:02:00,54.0,46.0,29.75,South,190,16.0,22.0,76,-99.99,,,-99.99,,2013-01-12 07:02:00,
2013-01-12 01:12:00,54.0,46.0,29.75,South,190,16.0,22.0,76,-99.99,,,-99.99,,2013-01-12 07:12:00,
2013-01-12 01:22:00,54.0,45.0,29.77,SSW,200,17.0,25.0,71,-99.99,,,-99.99,,2013-01-12 07:22:00,
2013-01-12 01:32:00,54.0,45.0,29.78,SSW,200,16.0,25.0,71,-99.99,,,-99.99,,2013-01-12 07:32:00,
2013-01-12 01:42:00,54.0,45.0,29.78,SSW,200,17.0,25.0,71,-99.99,,,-99.99,,2013-01-12 07:42:00,
2013-01-12 01:52:00,54.0,45.0,29.78,SSW,200,18.0,24.0,71,-99.99,,,-99.99,,2013-01-12 07:52:00,
2013-01-12 02:02:00,54.0,45.0,29.78,SSW,200,18.0,24.0,71,-99.99,,,-99.99,,2013-01-12 08:02:00,
2013-01-12 02:11:00,54.0,45.0,29.78,SSW,200,18.0,24.0,71,-99.99,,,-99.99,,2013-01-12 08:11:00,
2013-01-12 02:22:00,54.0,45.0,29.79,SSW,200,15.0,-999.0,71,-99.99,,,-99.99,,2013-01-12 08:22:00,
2013-01-12 02:32:00,54.0,45.0,29.80,South,190,15.0,-999.0,71,-99.99,,,-99.99,,2013-01-12 08:32:00,
2013-01-12 02:42:00,52.0,46.0,29.80,SSW,200,15.0,-999.0,81,-99.99,,,-99.99,,2013-01-12 08:42:00,
2013-01-12 02:53:00,54.0,46.0,29.80,SSW,200,14.0,-999.0,76,-99.99,,,-99.99,,2013-01-12 08:53:00,
2013-01-12 03:02:00,54.0,46.0,29.80,SSW,200,14.0,-999.0,76,-99.99,,,-99.99,,2013-01-12 09:02:00,
2013-01-12 03:12:00,54.0,46.0,29.80,SSW,200,14.0,-999.0,76,-99.99,,,-99.99,,2013-01-12 09:12:00,
2013-01-12 03:22:00,54.0,46.0,29.82,SSW,210,12.0,-999.0,76,-99.99,,,-99.99,,2013-01-12 09:22:00,
2013-01-12 03:32:00,52.0,46.0,29.82,SSW,210,9.0,-999.0,81,-99.99,,,-99.99,,2013-01-12 09:32:00,
2013-01-12 03:42:00,52.0,46.0,29.83,SW,220,10.0,-999.0,81,-99.99,,,-99.99,,2013-01-12 09:42:00,
2013-01-12 03:53:00,52.0,45.0,29.84,SW,220,10.0,16.0,76,-99.99,,,-99.99,,2013-01-12 09:53:00,
2013-01-12 04:02:00,52.0,45.0,29.84,SW,220,10.0,16.0,76,-99.99,,,-99.99,,2013-01-12 10:02:00,
2013-01-12 04:12:00,52.0,45.0,29.84,SW,220,10.0,16.0,76,-99.99,,,-99.99,,2013-01-12 10:12:00,
2013-01-12 04:22:00,52.0,45.0,29.83,SW,220,10.0,-999.0,76,-99.99,,,-99.99,,2013-01-12 10:22:00,
2013-01-12 04:32:00,50.0,45.0,29.84,SW,220,9.0,-999.0,81,-99.99,,,-99.99,,2013-01-12 10:32:00,
2013-01-12 04:43:00,50.0,45.0,29.83,SW,230,9.0,-999.0,81,-99.99,,,-99.99,,2013-01-12 10:43:00,
2013-01-12 04:52:00,50.0,45.0,29.83,WSW,240,8.0,-999.0,81,-99.99,,,-99.99,,2013-01-12 10:52:00,
2013-01-12 05:02:00,50.0,45.0,29.83,WSW,240,8.0,-999.0,81,-99.99,,,-99.99,,2013-01-12 11:02:00,
2013-01-12 05:12:00,50.0,45.0,29.83,WSW,240,8.0,-999.0,81,-99.99,,,-99.99,,2013-01-12 11:12:00,
2013-01-12 05:22:00,50.0,45.0,29.85,West,270,9.0,-999.0,81,-99.99,,,-99.99,,2013-01-12 11:22:00,
2013-01-12 05:32:00,50.0,41.0,29.86,West,280,13.0,21.0,71,-99.99,,,-99.99,,2013-01-12 11:32:00,
2013-01-12 05:43:00,50.0,37.0,29.86,West,280,13.0,-999.0,61,-99.99,,,-99.99,,2013-01-12 11:43:00,
2013-01-12 05:53:00,50.0,36.0,29.87,West,280,9.0,-999.0,57,-99.99,,,-99.99,,2013-01-12 11:53:00,
2013-01-12 06:02:00,50.0,36.0,29.87,West,280,9.0,-999.0,57,-99.99,,,-99.99,,2013-01-12 12:02:00,
2013-01-12 06:12:00,50.0,36.0,29.87,West,280,9.0,-999.0,57,-99.99,,,-99.99,,2013-01-12 12:12:00,
2013-01-12 06:22:00,46.0,32.0,29.90,WNW,290,15.0,18.0,57,-99.99,,,-99.99,,2013-01-12 12:22:00,
2013-01-12 06:32:00,46.0,32.0,29.90,WNW,290,17.0,22.0,57,-99.99,,,-99.99,,2013-01-12 12:32:00,
2013-01-12 06:43:00,45.0,32.0,29.92,WNW,290,18.0,23.0,61,-99.99,,,-99.99,,2013-01-12 12:43:00,
2013-01-12 06:53:00,43.0,34.0,29.92,WNW,290,15.0,-999.0,70,-99.99,,,-99.99,,2013-01-12 12:53:00,
2013-01-12 07:02:00,43.0,34.0,29.92,WNW,290,15.0,-999.0,70,-99.99,,,-99.99,,2013-01-12 13:02:00,
2013-01-12 07:12:00,43.0,34.0,29.92,WNW,290,15.0,-999.0,70,-99.99,,,-99.99,,2013-01-12 13:12:00,
2013-01-12 07:22:00,39.0,34.0,29.94,NW,310,15.0,24.0,80,-99.99,,,-99.99,,2013-01-12 13:22:00,
2013-01-12 07:33:00,39.0,34.0,29.94,NW,310,10.0,-999.0,80,-99.99,,,-99.99,,2013-01-12 13:33:00,
2013-01-12 07:43:00,37.0,34.0,29.97,WNW,300,12.0,18.0,86,-99.99,,,-99.99,,2013-01-12 13:43:00,
2013-01-12 07:53:00,37.0,34.0,29.97,WNW,300,10.0,-999.0,86,-99.99,,,-99.99,,2013-01-12 13:53:00,
2013-01-12 08:02:00,37.0,34.0,29.97,WNW,300,10.0,-999.0,86,-99.99,,,-99.99,,2013-01-12 14:02:00,
2013-01-12 08:12:00,37.0,34.0,29.97,WNW,300,10.0,-999.0,86,-99.99,,,-99.99,,2013-01-12 14:12:00,
2013-01-12 08:22:00,37.0,32.0,29.99,NW,310,12.0,20.0,80,-99.99,,,-99.99,,2013-01-12 14:22:00,
2013-01-12 08:33:00,37.0,32.0,30.00,NW,310,16.0,20.0,80,-99.99,,,-99.99,,2013-01-12 14:33:00,
2013-01-12 08:43:00,36.0,28.0,29.99,NW,310,13.0,-999.0,74,-99.99,,,-99.99,,2013-01-12 14:43:00,
2013-01-12 08:53:00,36.0,28.0,30.00,NW,310,13.0,20.0,74,-99.99,,,-99.99,,2013-01-12 14:53:00,
2013-01-12 09:03:00,36.0,28.0,30.00,NW,310,13.0,20.0,74,-99.99,,,-99.99,,2013-01-12 15:03:00,
2013-01-12 09:12:00,36.0,28.0,30.00,NW,310,13.0,20.0,74,-99.99,,,-99.99,,2013-01-12 15:12:00,
2013-01-12 09:22:00,36.0,28.0,30.01,NW,320,13.0,18.0,74,-99.99,,,-99.99,,2013-01-12 15:22:00,
2013-01-12 09:33:00,36.0,30.0,30.02,NW,320,12.0,-999.0,80,-99.99,,,-99.99,,2013-01-12 15:33:00,
2013-01-12 09:43:00,37.0,28.0,30.02,NW,320,12.0,-999.0,69,-99.99,,,-99.99,,2013-01-12 15:43:00,
2013-01-12 09:53:00,36.0,27.0,30.03,NW,310,14.0,-999.0,69,-99.99,,,-99.99,,2013-01-12 15:53:00,
2013-01-12 10:03:00,36.0,27.0,30.03,NW,310,14.0,-999.0,69,-99.99,,,-99.99,,2013-01-12 16:03:00,
2013-01-12 10:12:00,36.0,27.0,30.03,NW,310,14.0,-999.0,69,-99.99,,,-99.99,,2013-01-12 16:12:00,
2013-01-12 10:23:00,34.0,27.0,30.03,NW,320,15.0,22.0,74,-99.99,,,-99.99,,2013-01-12 16:23:00,
2013-01-12 10:33:00,34.0,27.0,30.03,NW,320,15.0,-999.0,74,-99.99,,,-99.99,,2013-01-12 16:33:00,
2013-01-12 10:43:00,34.0,25.0,30.03,NW,320,13.0,-999.0,69,-99.99,,,-99.99,,2013-01-12 16:43:00,
2013-01-12 10:53:00,34.0,25.0,30.02,NNW,330,13.0,-999.0,69,-99.99,,,-99.99,,2013-01-12 16:53:00,
2013-01-12 11:02:00,34.0,25.0,30.02,NNW,330,13.0,-999.0,69,-99.99,,,-99.99,,2013-01-12 17:02:00,
2013-01-12 11:12:00,34.0,25.0,30.02,NNW,330,13.0,-999.0,69,-99.99,,,-99.99,,2013-01-12 17:12:00,
2013-01-12 11:22:00,34.0,25.0,30.03,NW,310,10.0,-999.0,69,-99.99,,,-99.99,,2013-01-12 17:22:00,
2013-01-12 11:33:00,34.0,25.0,30.03,NW,320,9.0,-999.0,69,-99.99,,,-99.99,,2013-01-12 17:33:00,
2013-01-12 11:43:00,34.0,25.0,30.02,NW,310,9.0,-999.0,69,-99.99,,,-99.99,,2013-01-12 17:43:00,
2013-01-12 11:53:00,34.0,23.0,30.03,NW,310,10.0,-999.0,64,-99.99,,,-99.99,,2013-01-12 17:53:00,
2013-01-12 12:03:00,34.0,23.0,30.03,NW,310,10.0,-999.0,64,-99.99,,,-99.99,,2013-01-12 18:03:00,
2013-01-12 12:12:00,34.0,23.0,30.03,NW,310,10.0,-999.0,64,-99.99,,,-99.99,,2013-01-12 18:12:00,
2013-01-12 12:22:00,34.0,25.0,30.02,NW,310,12.0,-999.0,69,-99.99,,,-99.99,,2013-01-12 18:22:00,
2013-01-12 12:33:00,36.0,25.0,30.01,NW,310,9.0,-999.0,64,-99.99,,,-99.99,,2013-01-12 18:33:00,
2013-01-12 12:43:00,36.0,23.0,30.00,NNW,330,8.0,-999.0,59,-99.99,,,-99.99,,2013-01-12 18:43:00,
2013-01-12 12:53:00,34.0,25.0,29.99,NNW,330,8.0,-999.0,69,-99.99,,,-99.99,,2013-01-12 18:53:00,
2013-01-12 13:03:00,34.0,25.0,29.99,NNW,330,8.0,-999.0,69,-99.99,,,-99.99,,2013-01-12 19:03:00,
2013-01-12 13:12:00,34.0,25.0,29.99,NNW,330,8.0,-999.0,69,-99.99,,,-99.99,,2013-01-12 19:12:00,
2013-01-12 13:22:00,36.0,25.0,30.00,NW,320,9.0,-999.0,64,-99.99,,,-99.99,,2013-01-12 19:22:00,
2013-01-12 13:33:00,36.0,25.0,30.01,NW,310,9.0,-999.0,64,-99.99,,,-99.99,,2013-01-12 19:33:00,
2013-01-12 13:43:00,36.0,25.0,30.01,NNW,340,7.0,-999.0,64,-99.99,,,-99.99,,2013-01-12 19:43:00,
2013-01-12 13:53:00,36.0,25.0,30.00,NNW,330,3.0,-999.0,64,-99.99,,,-99.99,,2013-01-12 19:53:00,
2013-01-12 14:02:00,36.0,25.0,30.00,NNW,330,3.0,-999.0,64,-99.99,,,-99.99,,2013-01-12 20:02:00,
2013-01-12 14:12:00,36.0,25.0,30.00,NNW,330,3.0,-999.0,64,-99.99,,,-99.99,,2013-01-12 20:12:00,
2013-01-12 14:22:00,36.0,25.0,29.99,NW,320,9.0,-999.0,64,-99.99,,,-99.99,,2013-01-12 20:22:00,
2013-01-12 14:32:00,36.0,25.0,29.99,NNW,330,10.0,-999.0,64,-99.99,,,-99.99,,2013-01-12 20:32:00,
2013-01-12 14:43:00,34.0,25.0,29.99,NW,320,9.0,-999.0,69,-99.99,,,-99.99,,2013-01-12 20:43:00,
2013-01-12 14:53:00,34.0,25.0,29.99,NNW,330,9.0,-999.0,69,-99.99,,,-99.99,,2013-01-12 20:53:00,
2013-01-12 15:03:00,34.0,25.0,29.99,NNW,330,9.0,-999.0,69,-99.99,,,-99.99,,2013-01-12 21:03:00,
2013-01-12 15:12:00,34.0,25.0,29.99,NNW,330,9.0,-999.0,69,-99.99,,,-99.99,,2013-01-12 21:12:00,
2013-01-12 15:22:00,34.0,25.0,29.99,NNW,330,10.0,18.0,69,-99.99,,,-99.99,,2013-01-12 21:22:00,
2013-01-12 15:33:00,34.0,25.0,29.98,North,350,14.0,-999.0,69,-99.99,,,-99.99,,2013-01-12 21:33:00,
2013-01-12 15:43:00,34.0,25.0,29.98,NNW,330,13.0,-999.0,69,-99.99,,,-99.99,,2013-01-12 21:43:00,
2013-01-12 15:53:00,32.0,25.0,29.97,NNW,340,12.0,-999.0,74,-99.99,,,-99.99,,2013-01-12 21:53:00,
2013-01-12 16:02:00,32.0,25.0,29.97,NNW,340,12.0,-999.0,74,-99.99,,,-99.99,,2013-01-12 22:02:00,
2013-01-12 16:12:00,32.0,25.0,29.97,NNW,340,12.0,-999.0,74,-99.99,,,-99.99,,2013-01-12 22:12:00,
2013-01-12 16:22:00,32.0,25.0,29.95,NNW,340,13.0,17.0,74,-99.99,,,-99.99,,2013-01-12 22:22:00,
2013-01-12 16:33:00,32.0,23.0,29.95,NNW,340,12.0,-999.0,69,-99.99,,,-99.99,,2013-01-12 22:33:00,
2013-01-12 16:43:00,32.0,25.0,29.94,North,360,12.0,-999.0,74,-99.99,,,-99.99,,2013-01-12 22:43:00,
2013-01-12 16:53:00,30.0,25.0,29.95,NNW,340,13.0,-999.0,80,-99.99,,,-99.99,,2013-01-12 22:53:00,
2013-01-12 17:02:00,30.0,25.0,29.95,NNW,340,13.0,-999.0,80,-99.99,,,-99.99,,2013-01-12 23:02:00,
2013-01-12 17:12:00,30.0,25.0,29.95,NNW,340,13.0,-999.0,80,-99.99,,,-99.99,,2013-01-12 23:12:00,
2013-01-12 17:22:00,30.0,25.0,29.96,NNW,340,15.0,18.0,80,-99.99,,,-99.99,,2013-01-12 23:22:00,
2013-01-12 17:33:00,30.0,25.0,29.97,NNW,330,13.0,-999.0,80,-99.99,,,-99.99,,2013-01-12 23:33:00,
2013-01-12 17:43:00,30.0,25.0,29.97,NW,320,13.0,-999.0,80,-99.99,,,-99.99,,2013-01-12 23:43:00,
2013-01-12 17:53:00,30.0,25.0,29.98,NNW,330,13.0,-999.0,80,-99.99,,,-99.99,,2013-01-12 23:53:00,
2013-01-12 18:03:00,30.0,25.0,29.98,NNW,330,13.0,-999.0,80,-99.99,,,-99.99,,2013-01-13 00:03:00,
2013-01-12 18:12:00,30.0,25.0,29.98,NNW,330,13.0,-999.0,80,-99.99,,,-99.99,,2013-01-13 00:12:00,
2013-01-12 18:22:00,28.0,25.0,29.98,NW,320,15.0,-999.0,86,-99.99,,,-99.99,,2013-01-13 00:22:00,
2013-01-12 18:33:00,28.0,27.0,29.98,NW,320,14.0,18.0,92,-99.99,,,-99.99,,2013-01-13 00:33:00,
2013-01-12 18:43:00,28.0,27.0,29.98,NNW,330,14.0,20.0,92,-99.99,,,-99.99,,2013-01-13 00:43:00,
2013-01-12 18:53:00,28.0,27.0,29.96,NNW,340,15.0,21.0,92,-99.99,,,-99.99,,2013-01-13 00:53:00,
2013-01-12 19:02:00,28.0,27.0,29.96,NNW,340,15.0,21.0,92,-99.99,,,-99.99,,2013-01-13 01:02:00,
2013-01-12 19:12:00,28.0,27.0,29.96,NNW,340,15.0,21.0,92,-99.99,,,-99.99,,2013-01-13 01:12:00,
2013-01-12 19:22:00,28.0,27.0,29.95,North,350,12.0,16.0,92,-99.99,,,-99.99,,2013-01-13 01:22:00,
2013-01-12 19:32:00,28.0,27.0,29.95,NNW,340,12.0,17.0,92,-99.99,,,-99.99,,2013-01-13 01:32:00,
2013-01-12 19:43:00,28.0,27.0,29.95,North,350,12.0,18.0,92,-99.99,,,-99.99,,2013-01-13 01:43:00,
2013-01-12 19:53:00,28.0,27.0,29.94,North,350,13.0,-999.0,92,-99.99,,,-99.99,,2013-01-13 01:53:00,
2013-01-12 20:02:00,28.0,27.0,29.94,North,350,13.0,-999.0,92,-99.99,,,-99.99,,2013-01-13 02:02:00,
2013-01-12 20:12:00,28.0,27.0,29.94,North,350,13.0,-999.0,92,-99.99,,,-99.99,,2013-01-13 02:12:00,
2013-01-12 20:22:00,28.0,27.0,29.94,North,350,13.0,-999.0,92,-99.99,,,-99.99,,2013-01-13 02:22:00,